Location: Fossil View Observatory
(30.3980°N, 99.3522°W)
Time: 07:14:16
(UTC-06:00)

ISS - Visible Passes

Search period start: 20 February 2019 00:00
Search period end: 02 March 2019 00:00
Orbit: 403 x 411 km, 51.6° (Epoch: 21 February)

Date Brightness Start Highest point End Pass type
(mag) Time Alt. Az. Time Alt. Az. Time Alt. Az.
20 Feb -1.9 06:36:15 10° SSW 06:39:12 32° SE 06:42:09 10° ENE visible
21 Feb -0.8 05:45:57 10° SSE 05:47:53 15° SE 05:49:49 10° E visible
22 Feb -3.9 06:29:26 10° SW 06:32:40 70° NW 06:35:55 10° NE visible
23 Feb -3.0 05:40:22 36° S 05:41:13 47° SE 05:44:22 10° NE visible
24 Feb -0.5 04:51:47 13° E 04:51:47 13° E 04:52:22 10° ENE visible
24 Feb -2.5 06:24:32 16° W 06:26:15 23° NW 06:28:57 10° NNE visible
25 Feb -2.6 05:35:42 33° N 05:35:42 33° N 05:37:49 10° NNE visible
26 Feb -1.4 06:19:24 10° NW 06:19:58 10° NNW 06:20:36 10° NNW visible
27 Feb -1.1 05:30:12 12° N 05:30:12 12° N 05:30:33 10° N visible
